This demonstration page uses our WeatherBlox Daily Observations layout. Learn more.

Left ArrowRight Arrow

53.62937, 11.41316

Hourly Observations for July 16, 2016

Temp ( °F °C ) Dew Point ( °F °C ) Humidity (%) Winds ( mph kmh ) Pressure ( in mb ) Visibility ( mi km ) Precip ( " mm )
12:20 am 00:20 Partly Cloudy 52 11 48 9 88 88 W 6 9 30.21 1023 30 48 N/A
12:50 am 00:50 Mostly Clear 50 10 48 9 94 94 WSW 5 7 30.21 1023 7 11 N/A
1:20 am 01:20 Mostly Clear 50 10 48 9 94 94 WSW 3 6 30.21 1023 7 11 N/A
1:50 am 01:50 Mostly Clear 50 10 48 9 94 94 WSW 5 7 30.21 1023 7 11 N/A
2:50 am 02:50 Mostly Clear 50 10 48 9 94 94 WSW 5 7 30.21 1023 7 11 N/A
6:20 am 06:20 Mostly Sunny 48 9 48 9 100 100 VRB 2 4 30.21 1023 7 11 N/A
6:50 am 06:50 Partly Cloudy 52 11 50 10 94 94 VRB 1 2 30.21 1023 30 48 N/A
7:20 am 07:20 Partly Cloudy 55 13 52 11 88 88 WSW 2 4 30.21 1023 30 48 N/A
7:50 am 07:50 Mostly Sunny 59 15 50 10 72 72 SSW 5 7 30.21 1023 7 11 N/A
8:20 am 08:20 Mostly Sunny 59 15 50 10 72 72 SSW 6 9 30.18 1022 7 11 N/A
8:50 am 08:50 Mostly Sunny 61 16 52 11 72 72 SW 10 17 30.21 1023 7 11 N/A
9:20 am 09:20 Mostly Sunny 63 17 52 11 68 68 SW 10 17 30.18 1022 7 11 N/A
9:50 am 09:50 Mostly Sunny 64 18 50 10 60 60 SW 10 17 30.18 1022 7 11 N/A
10:20 am 10:20 Mostly Sunny 66 19 52 11 60 60 SW 12 19 30.18 1022 7 11 N/A
10:50 am 10:50 Mostly Sunny 66 19 52 11 60 60 SW 12 19 30.18 1022 7 11 N/A
11:20 am 11:20 Mostly Sunny 68 20 50 10 53 53 WSW 12 19 30.18 1022 30 48 N/A
11:50 am 11:50 Mostly Sunny 68 20 52 11 56 56 SW 10 17 30.18 1022 7 11 N/A
12:20 pm 12:20 Mostly Sunny 68 20 52 11 56 56 WSW 14 22 30.18 1022 7 11 N/A
12:50 pm 12:50 Mostly Cloudy 68 20 54 12 60 60 SW 13 20 30.18 1022 30 48 N/A
1:20 pm 13:20 Mostly Cloudy 70 21 54 12 57 57 WSW 14 22 30.18 1022 30 48 N/A
1:50 pm 13:50 Mostly Cloudy 70 21 55 13 60 60 WSW 15 24 30.18 1022 30 48 N/A
2:20 pm 14:20 Mostly Cloudy 70 21 55 13 60 60 W 14 22 30.15 1021 30 48 N/A
2:50 pm 14:50 Cloudy 72 22 57 14 61 61 WSW 13 20 30.15 1021 30 48 N/A
3:20 pm 15:20 Mostly Cloudy 72 22 59 15 65 65 SW 14 22 30.15 1021 30 48 N/A
3:50 pm 15:50 Mostly Cloudy 70 21 59 15 69 69 WSW 14 22 30.15 1021 30 48 N/A
4:20 pm 16:20 Mostly Cloudy 70 21 59 15 69 69 WSW 13 20 30.15 1021 30 48 N/A
4:50 pm 16:50 Mostly Cloudy 70 21 59 15 69 69 WSW 12 19 30.15 1021 30 48 N/A
5:20 pm 17:20 Mostly Cloudy 68 20 59 15 73 73 W 12 19 30.15 1021 30 48 N/A
5:50 pm 17:50 Mostly Cloudy 70 21 61 16 73 73 WSW 13 20 30.15 1021 30 48 N/A
6:20 pm 18:20 Mostly Cloudy 68 20 61 16 78 78 WSW 14 22 30.15 1021 30 48 N/A
6:50 pm 18:50 Mostly Cloudy 68 20 61 16 78 78 WSW 10 17 30.15 1021 30 48 N/A
7:20 pm 19:20 Cloudy 68 20 61 16 78 78 WSW 12 19 30.15 1021 30 48 N/A
8:20 pm 20:20 Mostly Cloudy 66 19 61 16 83 83 SW 9 15 30.12 1020 30 48 N/A
8:50 pm 20:50 Cloudy 66 19 61 16 83 83 SW 8 13 30.12 1020 30 48 N/A
9:20 pm 21:20 Cloudy 66 19 61 16 83 83 SSW 6 9 30.12 1020 30 48 N/A
9:50 pm 21:50 Cloudy 66 19 61 16 83 83 SW 8 13 30.12 1020 30 48 N/A
10:20 pm 22:20 Cloudy 66 19 61 16 83 83 SW 7 11 30.12 1020 30 48 N/A
10:50 pm 22:50 Cloudy with Drizzle 64 18 63 17 94 94 W 9 15 30.15 1021 4 6 N/A
11:20 pm 23:20 Cloudy with Drizzle 64 18 63 17 94 94 W 7 11 30.15 1021 2 3 N/A
11:50 pm 23:50 Cloudy with Mist and Fog 64 18 63 17 94 94 WSW 7 11 30.12 1020 3 5 N/A

Powered by AerisWeather